TimeEDT,TemperatureF,Dew PointF,Humidity,Sea Level PressureIn,VisibilityMPH,Wind Direction,Wind SpeedMPH,Gust SpeedMPH,PrecipitationIn,Events,Conditions,WindDirDegrees,DateUTC
12:56 AM,66.9,57.9,73,29.91,10.0,South,18.4,-,N/A,,Overcast,170,2013-03-12 04:56:00
1:56 AM,66.9,59.0,76,29.89,10.0,South,19.6,-,N/A,,Overcast,170,2013-03-12 05:56:00
2:56 AM,66.0,60.1,81,29.86,10.0,South,13.8,-,0.00,Rain,Light Rain,170,2013-03-12 06:56:00
3:56 AM,66.0,61.0,84,29.87,8.0,SSW,9.2,-,0.00,Rain,Light Rain,210,2013-03-12 07:56:00
4:26 AM,64.4,60.8,88,29.87,10.0,SSW,11.5,-,0.00,,Overcast,210,2013-03-12 08:26:00
4:56 AM,64.9,61.0,87,29.87,8.0,SW,9.2,-,0.02,Rain,Light Rain,220,2013-03-12 08:56:00
5:27 AM,64.4,60.8,88,29.86,10.0,SSW,6.9,-,0.00,,Overcast,200,2013-03-12 09:27:00
5:56 AM,64.9,61.0,87,29.86,7.0,SSW,12.7,-,0.01,Rain,Light Rain,210,2013-03-12 09:56:00
6:56 AM,66.0,62.1,87,29.86,10.0,SSW,18.4,25.3,0.03,Rain,Light Rain,210,2013-03-12 10:56:00
7:56 AM,64.9,61.0,87,29.86,10.0,SSW,16.1,23.0,0.01,,Overcast,210,2013-03-12 11:56:00
8:56 AM,64.9,61.0,87,29.87,10.0,SW,11.5,-,0.00,,Overcast,220,2013-03-12 12:56:00
9:56 AM,66.0,60.1,81,29.88,10.0,SW,13.8,-,N/A,,Mostly Cloudy,220,2013-03-12 13:56:00
10:56 AM,66.9,60.1,79,29.89,10.0,SW,13.8,25.3,0.00,Rain,Light Rain,230,2013-03-12 14:56:00
11:56 AM,66.9,59.0,76,29.90,10.0,SW,19.6,39.1,0.00,,Overcast,220,2013-03-12 15:56:00
12:27 PM,64.4,60.8,88,29.90,10.0,SW,18.4,27.6,N/A,,Overcast,220,2013-03-12 16:27:00
12:56 PM,66.0,60.1,81,29.89,10.0,SSW,15.0,23.0,0.00,,Overcast,210,2013-03-12 16:56:00
1:46 PM,64.4,60.8,88,29.88,7.0,SW,12.7,23.0,0.00,Rain,Light Rain,230,2013-03-12 17:46:00
1:56 PM,64.0,61.0,90,29.87,8.0,SW,15.0,-,0.00,,Overcast,220,2013-03-12 17:56:00
2:56 PM,66.0,61.0,84,29.84,10.0,WSW,9.2,-,N/A,,Overcast,250,2013-03-12 18:56:00
3:37 PM,69.8,60.8,73,29.83,10.0,WSW,9.2,-,N/A,,Mostly Cloudy,250,2013-03-12 19:37:00
3:56 PM,71.1,60.1,68,29.83,10.0,SW,10.4,-,N/A,,Mostly Cloudy,230,2013-03-12 19:56:00
4:06 PM,71.6,59.0,64,29.83,10.0,WSW,12.7,-,N/A,,Mostly Cloudy,240,2013-03-12 20:06:00
4:56 PM,72.0,59.0,64,29.82,10.0,West,8.1,-,N/A,,Mostly Cloudy,280,2013-03-12 20:56:00
5:56 PM,72.0,53.1,51,29.83,10.0,West,10.4,-,N/A,,Mostly Cloudy,280,2013-03-12 21:56:00
6:56 PM,70.0,42.1,36,29.85,10.0,WNW,8.1,-,N/A,,Mostly Cloudy,290,2013-03-12 22:56:00
7:56 PM,64.0,44.1,48,29.88,10.0,West,6.9,-,N/A,,Mostly Cloudy,260,2013-03-12 23:56:00
8:56 PM,62.1,45.0,53,29.90,10.0,West,6.9,-,N/A,,Scattered Clouds,280,2013-03-13 00:56:00
9:56 PM,61.0,46.0,58,29.93,10.0,WNW,9.2,-,N/A,,Partly Cloudy,290,2013-03-13 01:56:00
10:56 PM,59.0,45.0,60,29.94,10.0,West,5.8,-,N/A,,Partly Cloudy,280,2013-03-13 02:56:00
11:56 PM,55.9,45.0,67,29.96,10.0,West,6.9,-,N/A,,Clear,270,2013-03-13 03:56:00